Lynchburg, VA

6:12 AM EDT on October 15, 2019 (GMT -0400)
Lynchburg Regional-Glenn

Weather History for KLYH - August, 2019

Change the Weather History Date:

Saturday, August 17, 2019

  Actual Average Record
Temperature  
Mean Temperature 80 °F 74 °F  
Max Temperature 93 °F 85 °F 102 °F (1988)
Min Temperature 67 °F 63 °F 52 °F (1979)
Degree Days  
Heating Degree Days 0 0  
Month to date heating degree days 0 0  
Since 1 June heating degree days 2 15  
Since 1 July heating degree days 0 1  
Cooling Degree Days 15 9  
Month to date cooling degree days 218 167  
Year to date cooling degree days 1073 781  
Since 1 June cooling degree days 861 699  
Growing Degree Days 30 (Base 50)    
Moisture  
Dew Point 69 °F    
Average Humidity 71    
Maximum Humidity 100    
Minimum Humidity 41    
Precipitation  
Precipitation 0.00 in 0.10 in 2.50 in (1955)
Month to date precipitation 2.41 1.79  
Year to date precipitation 26.75 26.46  
Snow  
Snow 0.00 in - - ()
Month to date snowfall 0.0  
Since 1 June snowfall 0.0  
Since 1 July snowfall 0.0  
Snow Depth 0.00 in    
Sea Level Pressure  
Sea Level Pressure 30.00 in    
Wind  
Wind Speed 4 mph (South)    
Max Wind Speed 16 mph    
Max Gust Speed 19 mph    
Visibility 10 miles    
Events      
T = Trace of Precipitation, MM = Missing Value Source: NWS Daily Summary

Daily Weather History Graph

Daily Weather History Graph

Search for Another Location

Airport or City:

Astronomy

Aug. 17, 2019 Rise Set
Actual Time 6:34 AM EDT 8:06 PM EDT
Civil Twilight 6:06 AM EDT 8:34 PM EDT
Nautical Twilight 5:33 AM EDT 9:07 PM EDT
Astronomical Twilight 4:58 AM EDT 9:42 PM EDT
Moon 9:35 PM EDT (8/17) 8:20 AM EDT (8/17)
Length of Visible Light 14h 27m
Length of Day
13h 32m
Waning Gibbous, 96% of the Moon is Illuminated
Aug 17
Waning Gibbous
Aug 23
Last Quarter
Aug 30
New
Sep 5
First Quarter
Sep 14
Full

Hourly Weather History & Observations

Time (EDT) Temp. Heat Index Dew Point Humidity Pressure Visibility Wind Dir Wind Speed Gust Speed Precip Events Conditions
12:40 AM 73.9 °F - 71.1 °F 91% 30.02 in 10.0 mi North 3.5 mph - N/A   Mostly Cloudy
12:54 AM 73.9 °F - 71.1 °F 91% 29.99 in 10.0 mi Calm Calm - N/A   Mostly Cloudy
1:54 AM 72.0 °F - 70.0 °F 93% 29.98 in 10.0 mi North 3.5 mph - N/A   Clear
2:54 AM 70.0 °F - 69.1 °F 97% 29.99 in 10.0 mi Calm Calm - N/A   Clear
3:54 AM 69.1 °F - 69.1 °F 100% 29.98 in 8.0 mi Calm Calm - N/A   Clear
4:54 AM 69.1 °F - 68.0 °F 96% 29.99 in 10.0 mi Calm Calm - N/A   Clear
5:54 AM 68.0 °F - 68.0 °F 100% 29.99 in 8.0 mi South 4.6 mph - N/A   Clear
6:54 AM 69.1 °F - 68.0 °F 96% 29.99 in 6.0 mi Calm Calm - N/A   Clear
7:54 AM 73.9 °F - 71.1 °F 91% 29.99 in 10.0 mi Calm Calm - N/A   Clear
8:54 AM 79.0 °F - 72.0 °F 79% 30.00 in 10.0 mi Calm Calm - N/A   Clear
9:54 AM 82.0 °F 87.4 °F 73.0 °F 74% 30.01 in 10.0 mi Calm Calm - N/A   Clear
10:54 AM 84.0 °F 90.2 °F 73.0 °F 69% 30.04 in 10.0 mi SSE 3.5 mph - N/A   Mostly Cloudy
11:34 AM 84.9 °F 90.7 °F 72.0 °F 65% 30.06 in 10.0 mi ESE 5.8 mph - N/A   Scattered Clouds
11:54 AM 87.1 °F 90.6 °F 68.0 °F 53% 30.03 in 10.0 mi Calm Calm - N/A   Clear
12:54 PM 88.0 °F 92.1 °F 69.1 °F 53% 30.02 in 10.0 mi SSE 4.6 mph - N/A   Scattered Clouds
1:54 PM 90.0 °F 93.6 °F 68.0 °F 48% 29.99 in 10.0 mi Variable 5.8 mph - N/A   Partly Cloudy
2:54 PM 91.0 °F 92.6 °F 64.0 °F 41% 29.98 in 10.0 mi Calm Calm - N/A   Partly Cloudy
3:54 PM 91.0 °F 94.3 °F 66.9 °F 45% 29.96 in 10.0 mi Variable 5.8 mph - N/A   Partly Cloudy
4:54 PM 91.9 °F 94.5 °F 66.0 °F 42% 29.96 in 10.0 mi WSW 3.5 mph - N/A   Scattered Clouds
5:54 PM 90.0 °F 96.9 °F 72.0 °F 55% 29.96 in 10.0 mi SSE 10.4 mph - N/A   Clear
6:54 PM 86.0 °F 93.8 °F 73.9 °F 67% 29.97 in 10.0 mi South 9.2 mph - N/A   Clear
7:54 PM 80.1 °F 83.8 °F 72.0 °F 76% 29.99 in 10.0 mi South 15.0 mph - N/A   Clear
8:54 PM 77.0 °F - 69.1 °F 76% 30.00 in 10.0 mi South 6.9 mph - N/A   Clear
9:54 PM 73.9 °F - 69.1 °F 85% 30.01 in 10.0 mi South 4.6 mph - N/A   Clear
10:54 PM 73.0 °F - 69.1 °F 87% 30.02 in 10.0 mi Calm Calm - N/A   Clear
11:54 PM 71.1 °F - 69.1 °F 93% 30.01 in 10.0 mi SSW 4.6 mph - N/A   Clear